Regional Weather Roundup
Issued by NWS

Home | Current Version | Previous Version | Text Only | Print | Product List | Glossary On
Versions: 1 2 3 4 5 6 7 8 9 10 11 12 13 14 15 16 17 18 19 20 21 22 23 24 25 26 27 28 29 30 31 32 33 34 35 36 37 38 39 40 41 42 43 44 45 46 47 48 49 50
000
ASUS43 KDTX 231510
RWRMI
MICHIGAN HOURLY REGIONAL WEATHER ROUNDUP
NATIONAL WEATHER SERVICE DETROIT/PONTIAC MI
1100 AM EDT TUE JUL 23 2019

NOTE: "FAIR" INDICATES FEW OR NO CLOUDS BELOW 12,000 FEET WITH NO
SIGNIFICANT WEATHER AND/OR OBSTRUCTION TO VISIBILITY.

MIZ047>049-052>055-059>063-066>070-074>076-081>083-231600-
SOUTHEAST LOWER MICHIGAN

CITY           SKY/WX    TMP DP  RH WIND       PRES   REMARKS
ADRIAN         FAIR      71  47  42 N13       30.07S
ALMA           FAIR      73  48  41 NW10      30.06F
ANN ARBOR      FAIR     N/A N/A N/A MISG      30.05S
BAD AXE        FAIR      71  54  54 NW10      30.02S
CARO           FAIR      73  58  60 NW10      30.03S
DETROIT CITY   FAIR      73  48  41 NW9       30.02F
DETROIT        FAIR      73  49  42 NW12      30.04S
FLINT          FAIR      73  53  49 NW6       30.04F
GROSSE ILE     FAIR      72  51  47 NW8       30.02S
HILLSDALE      FAIR      69  47  46 NW10      30.08S
HOWELL         FAIR      72  49  45 NW6       30.06S

CITY           SKY/WX    TMP DP  RH WIND       PRES   REMARKS
JACKSON        FAIR      71  50  47 VRB6      30.07S
LAMBERTVILLE   FAIR      71  54  54 NW7       30.04F
LANSING        FAIR      70  51  51 N10       30.07S
LAPEER         FAIR      71  53  52 NW9       30.04S
MASON          FAIR      72  53  51 N12       30.07S
MONROE         FAIR      72  55  54 NW10      30.04S
MT. CLEMENS    MOSUNNY   73  54  49 N12       30.03R
PONTIAC        FAIR      70  51  51 NW12      30.03S
PORT HOPE        N/A     69  58  67 NW8       30.01R
PORT HURON     FAIR      72  54  53 W7        30.02R
TRI CITIES     FAIR      72  56  57 NW10      30.04F
MIDLAND        FAIR      74  55  50 NW7       30.04S
TROY           FAIR      71  46  40 W9        30.05S
SAGINAW HB     FAIR      72  54  53 NW10      30.03F
$$
MIZ043>046-050>051-056>058-064>065-071>073-077>080-231600-
SOUTHWEST LOWER MICHIGAN

CITY           SKY/WX    TMP DP  RH WIND       PRES   REMARKS
BATTLE CREEK   FAIR      73  50  44 NW7       30.09S
BENTON HARBOR  FAIR      72  57  59 VRB3      30.10S
BIG RAPIDS     PTSUNNY   68  55  63 W7G21     30.07F
COLDWATER      FAIR      69  46  43 N6        30.09S
FREMONT        PTSUNNY   71  53  53 W7        30.07F
HOLLAND        FAIR      73  51  46 VRB6      30.09F
GRAND RAPIDS   PTSUNNY   74  50  42 NW7       30.08F
IONIA          FAIR     N/A N/A N/A NW8       30.07S
KALAMAZOO      FAIR      74  48  39 N7        30.09F
LUDINGTON      PTSUNNY   70  58  65 NW10      30.07S
MARSHALL       FAIR      73  49  43 N3        30.08S
MOUNT PLEASANT PTSUNNY   72  50  46 W7        30.05S
MUSKEGON       PTSUNNY   73  55  53 W9        30.09S
SOUTH HAVEN    FAIR      71  55  56 N3        30.10S
$$
MIZ016>042-231600-
NORTHERN LOWER MICHIGAN

CITY           SKY/WX    TMP DP  RH WIND       PRES   REMARKS
ALPENA         FAIR      67  57  70 N7        30.02S
BEAVER ISLAND  PTSUNNY   64  57  77 NW9       30.05F
BELLAIRE       PTSUNNY   70  58  66 NW8       30.05R
CADILLAC       PTSUNNY   71  55  56 NW12      30.05S
CHARLEVOIX     CLOUDY    66  60  79 NW13      30.08R
FRANKFORT      FAIR      72  58  61 N7G18     30.07F
GAYLORD        PTSUNNY   66  56  70 W6        30.04F
GRAYLING       PTSUNNY   66  57  71 NW9       30.03F
HARBOR SPRINGS CLOUDY    67  61  81 W6        30.04S
HOUGHTON LAKE  PTSUNNY   65  57  75 VRB6      30.05F
MANISTEE       FAIR      70  62  76 NW9       30.07S
OSCODA         CLOUDY    68  54  60 NW9       30.01S
PELLSTON       CLOUDY    66  59  78 NW10      30.03F
ROGERS CITY    PTSUNNY   65  60  83 NW5       30.03S
TRAVERSE CITY  FAIR      70  58  65 NW9       30.04S
$$
MIZ007>008-015-231600-
EASTERN UPPER MICHIGAN

CITY           SKY/WX    TMP DP  RH WIND       PRES   REMARKS
KINROSS        CLOUDY    62  57  83 NW9       30.03S
MACKINAC ISLAN CLOUDY    61  60  96 CALM      30.03R
NEWBERRY       PTSUNNY   64  58  82 NW8       30.04S
S. S. MARIE    CLOUDY    62  57  83 W9        30.02R
MUNISING         N/A     60  56  86 NW10      30.10R
$$
MIZ004>006-011>014-085-231600-
CENTRAL UPPER MICHIGAN

CITY           SKY/WX    TMP DP  RH WIND       PRES   REMARKS
MANISTIQUE     FAIR      70  58  67 NW16G22   30.05S
ESCANABA       PTSUNNY   68  55  64 NW10G22   30.09R
MENOMINEE      FAIR      70  56  61 N10       30.10F
SAWYER-GWINN   MOSUNNY   68  52  56 N14       30.10S
$$
MIZ001>003-009>011-084-231600-
WESTERN UPPER MICHIGAN

CITY           SKY/WX    TMP DP  RH WIND       PRES   REMARKS
IRON MOUNTAIN  FAIR      70  54  56 NW16G23   30.12S
HOUGHTON       FAIR      68  51  54 NW12      30.13S
COPPER HARBOR    N/A     62  57  83 N12       30.11S
IRONWOOD       FAIR      66  58  75 W5        30.18S
$$

ABBREVIATIONS USED IN REMARKS
   TC - TEMPERATURE IN CELSIUS
  WCI - WIND CHILL INDEX
   HX - HEAT INDEX
  VSB - VISIBILITY





USA.gov is the U.S. government's official web portal to all federal, state and local government web resources and services.